Hourly Data Report for October 06, 2015

All times are specified in Local Standard Time (LST). Add 1 hour to adjust for Daylight Saving Time where and when it is observed.

SAINT JOHN A
NEW BRUNSWICK

45°18'58.000" N
65°53'24.000" W
108.80 m
8104901
71609
YSJ

Download Data

Hourly Data (October 2015)
Hourly Data Report for October 6, 2015
Temp Definition
°C
Dew Point Temp Definition
°C
Rel Hum Definition
%
Wind Dir Definition
10's deg

Wind Spd Definition
km/h
Visibility Definition
km
Stn Press Definition
kPa
Hmdx Definition


Wind Chill Definition


Weather Definition


TIME
00:00 Legend Double Dagger 10.0 9.4 96 36 1 24.1 100.58     LegendNANA
01:00 Legend Double Dagger 9.7 9.3 97 5 3 24.1 100.53     LegendNANA
02:00 Legend Double Dagger 10.0 9.4 96 7 4 24.1 100.48     Cloudy
03:00
04:00 Legend Double Dagger 9.5 9.1 97 4 5 24.1 100.34     LegendNANA
05:00 Legend Double Dagger 9.7 9.3 97 5 5 24.1 100.32     Cloudy
06:00 Legend Double Dagger 9.8 9.4 97 3 5 24.1 100.28     LegendNANA
07:00 Legend Double Dagger 11.2 10.3 94 3 6 24.1 100.25     LegendNANA
08:00 Legend Double Dagger 12.4 9.8 84 3 9 24.1 100.24     Mostly Cloudy
09:00 Legend Double Dagger 14.0 9.7 75 2 9 24.1 100.20     LegendNANA
10:00 Legend Double Dagger 15.5 9.2 66 3 8 24.1 100.17     LegendNANA
11:00 Legend Double Dagger 16.4 9.4 63 1 8 24.1 100.14     Mainly Clear
12:00 Legend Double Dagger 16.0 8.6 61 34 5 24.1 100.09     LegendNANA
13:00 Legend Double Dagger 16.6 8.6 59 1 4 24.1 100.03     LegendNANA
14:00 Legend Double Dagger 17.5 10.0 61 15 8 24.1 99.96     Mainly Clear
15:00 Legend Double Dagger 15.2 10.0 71 18 10 24.1 99.91     LegendNANA
16:00 Legend Double Dagger 15.7 9.9 68 17 11 24.1 99.89     LegendNANA
17:00 Legend Double Dagger 14.7 10.0 73 20 12 24.1 99.87     Mainly Clear
18:00 Legend Double Dagger 11.4 9.8 90 21 7 24.1 99.87     LegendNANA
19:00 Legend Double Dagger 8.0 7.6 97 36 1 24.1 99.89     LegendNANA
20:00 Legend Double Dagger 5.1 4.5 96 36 1 24.1 99.88     Clear
21:00 Legend Double Dagger 4.7 4.3 97 4 4 24.1 99.85     LegendNANA
22:00 Legend Double Dagger 4.2 3.8 97 36 1 1.6 99.86     Fog
23:00 Legend Double Dagger 4.6 4.6 100 0 1 0.8 99.84     Fog

Notes on Data Quality.

Legend

  • E = Estimated
  • M = Missing
  • NA = Not Available
  • ‡ = Partner data that is not subject to review by the National Climate Archives
Date modified: